Regional Weather Roundup
Issued by NWS Boston, MA

Home | Current Version | Previous Version | Text Only | Print | Product List | Glossary On
Versions: 1 2 3 4 5 6 7 8 9 10 11 12 13 14 15 16 17 18 19 20 21 22 23 24 25 26 27 28 29 30 31 32 33 34 35 36 37 38 39 40 41 42 43 44 45 46 47 48 49 50
000
ASUS41 KBOX 042010
RWRBOX

REGIONAL WEATHER ROUNDUP
NATIONAL WEATHER SERVICE TAUNTON MA
300 PM EST WED MAR 04 2015

NOTE:  "FAIR" INDICATES FEW OR NO CLOUDS BELOW 12,000 FEET WITH NO
SIGNIFICANT WEATHER AND/OR OBSTRUCTIONS TO VISIBILITY.  THE FOLLOWING
OBSERVATION LOCATIONS DO NOT REPORT PRESENT WEATHER...PROVINCETOWN...
SMITHFIELD...BLOCK ISLAND...KEENE...AND OXFORD.

MAZALL-042100-
EASTERN MASSACHUSETTS

CITY           SKY/WX    TMP DP  RH WIND       PRES   REMARKS
BOSTON         CLOUDY    42  29  59 W18G28    29.77R
BEVERLY        CLOUDY    43  27  53 W15       29.74R
LAWRENCE       CLOUDY    41  28  60 W10       29.76R
BEDFORD        CLOUDY    41  28  60 W10       29.75F
BLUE HILL        N/A     40  29  64 W12       29.74R
NORWOOD        CLOUDY    42  30  62 W10       29.77S
MARSHFIELD     NOT AVBL
PLYMOUTH       CLOUDY    41  34  76 SW8       29.78S
TAUNTON        CLOUDY    44  32  62 W10G17    29.78R
NEW BEDFORD    CLOUDY    42  35  76 W8        29.78S
$$

MAZALL-042100-
CAPE COD AND THE ISLANDS

CITY           SKY/WX    TMP DP  RH WIND       PRES   REMARKS
FALMOUTH       CLOUDY    36  34  93 SW12      29.79S FOG     WCI  27
HYANNIS        CLOUDY    35  34  96 SW8       29.78F FOG     WCI  29
CHATHAM        CLOUDY    35  34  96 SW7       29.81F FOG     WCI  29
PROVINCETOWN   CLOUDY    36  32  87 SW13      29.78S WCI  27
NANTUCKET      CLOUDY    36  34  92 SW12      29.82F FOG     WCI  28
MARTHAS VNYRD  CLOUDY    39  33  79 SW9       29.80F
$$

MAZALL-042100-
CENTRAL AND WESTERN MASSACHUSETTS

CITY           SKY/WX    TMP DP  RH WIND       PRES   REMARKS
WORCESTER      CLOUDY    38  28  67 W17G24    29.73S WCI  28
FITCHBURG      CLOUDY    41  26  55 W12G26    29.76R
ORANGE         CLOUDY    39  26  59 W9        29.76F
SPRINGFIELD    PTSUNNY   40  30  69 W5        29.76F
WESTFIELD      CLOUDY    42  29  59 CALM      29.76F
NORTH ADAMS    CLOUDY    36  26  67 W5        29.78F
PITTSFIELD     CLOUDY    34  28  79 W6        29.75F WCI  29
$$

RIZALL-042100-
RHODE ISLAND

CITY           SKY/WX    TMP DP  RH WIND       PRES   REMARKS
PROVIDENCE     CLOUDY    43  32  65 NW8       29.80R
NEWPORT        CLOUDY    40  35  83 SW5       29.80R
BLOCK ISLAND   CLOUDY    37  34  87 W12       29.81S WCI  30
SMITHFIELD     CLOUDY    41  28  60 W9G17     29.77S
WESTERLY       CLOUDY    38  34  85 SW8       29.82R FOG
$$

CTZALL-042100-
CONNECTICUT

CITY           SKY/WX    TMP DP  RH WIND       PRES   REMARKS
BRADLEY INTL   CLOUDY    43  30  60 W8        29.78F
HARTFORD       CLOUDY    43  33  68 SW9       29.79F
BRIDGEPORT     CLOUDY    37  34  89 SW10      29.81F FOG     WCI  30
DANBURY        CLOUDY    41  31  67 W6        29.82S
GROTON         CLOUDY    36  34  92 SW8       29.80F FOG     WCI  30
NEW HAVEN      CLOUDY    41  36  82 SW6       29.80F
CHESTER        NOT AVBL
MERIDEN        CLOUDY    43  33  68 NW3       29.79F
WILLIMANTIC    CLOUDY    42  33  70 W6        29.79F
OXFORD         PTSUNNY   41  30  65 CALM      29.79F
$$

MEZ002-015-021-024-NHZ003-005-008-011-012-014-VTZ005-008-042100-
NORTHERN NEW ENGLAND

CITY           SKY/WX    TMP DP  RH WIND       PRES   REMARKS
PORTLAND ME    PTSUNNY   46  26  45 W15G22    29.67F
BANGOR ME      PTSUNNY   42  21  43 NW13G21   29.62F
CONCORD NH     CLOUDY    44  24  45 W10       29.70F
MANCHESTER NH  CLOUDY    44  26  49 W9G17     29.71S
NASHUA NH      CLOUDY    44  25  47 W10G20    29.74S
PORTSMOUTH NH  PTSUNNY   44  25  47 W12       29.69R
JAFFREY NH     CLOUDY    38  24  57 W13G21    29.72R WCI  30
KEENE NH       CLOUDY    39  25  56 SW13      29.74F WCI  32
BURLINGTON VT  PTSUNNY   39  23  52 NW8       29.73R
MT. WASHINGTON FOG       14  14 100 W56         N/A  VSB 1/16WCI -12
$$

NYZ052-076-042100-
EASTERN NEW YORK

CITY           SKY/WX    TMP DP  RH WIND       PRES   REMARKS
ALBANY         CLOUDY    38  27  64 N7        29.83S
NEW YORK CITY  CLOUDY    45  38  76 SW9       29.82F
$$

ANZALL-042100-
MARINE OBSERVATIONS

STATION/POSITION TIME  TEMP    WIND        PRES    VSBY  WAVE
                       AIR SEA DIR/SP/G                  HT/PER
                 (UTC) (F)     (DEG/KT/KT) (MB)    (MI)  (FT/S)
BOSTON BUOY      NOT AVBL
BUZZARDS BAY     NOT AVBL
NANTUCKET SOUND  1950   33 31  220/ 12/ 12 1009.6R         1/ 3
MASS BAY-STELLWA 1904   38 36  230/ 12/ 14   N/A    1 7/8  2/ 3
ISLE OF SHOALS   NOT AVBL
S OF BLOCK IS    1908      36                N/A           9/ 9
$$

......................KEY.........................
  SKY/WX - SKY CONDITION/PRESENT WEATHER
  TMP    - TEMPERATURE IN FAHRENHEIT
  DWPT   - DEWPOINT IN FAHRENHEIT
  RH     - RELATIVE HUMIDITY IN PERCENT
  WIND   - DIRECTION AND SPEED IN MPH
  PRES   - MEAN SEA LEVEL PRESSURE IN INCHES OF HG
  WCI    - WIND CHILL INDEX
  VSB    - VISIBILITY IN MILES
  HX     - HEAT INDEX
  TC     - TEMPERATURE IN CELSIUS
  VRB    - VARIABLE WIND DIRECTION
  N/A    - NOT AVAILABLE



USA.gov is the U.S. government's official web portal to all federal, state and local government web resources and services.